| time (UTC) | temp F | wind direction | speed MPH | gust MPH | rain 1hr in | rain 24hr in | rain mn in | humidity % | barometer mb |
| 20260507085505 | 41 | 180 | 0.0 | 0.0 | 0.00 | 0.10 | 0.10 | 99 | 1003.7 |
| 20260507085001 | 41 | 197 | 3.0 | 3.0 | 0.00 | 0.10 | 0.10 | 99 | 1003.8 |
| 20260507084458 | 41 | 198 | 0.0 | 1.0 | 0.00 | 0.10 | 0.10 | 99 | 1004.0 |
| 20260507083955 | 41 | 354 | 1.0 | 2.0 | 0.00 | 0.10 | 0.10 | 99 | 1004.1 |
| 20260507083452 | 41 | 201 | 2.0 | 2.0 | 0.00 | 0.10 | 0.10 | 99 | 1004.4 |
| 20260507082948 | 41 | 211 | 3.0 | 5.0 | 0.00 | 0.10 | 0.10 | 99 | 1004.7 |
| 20260507082444 | 41 | 256 | 3.0 | 3.0 | 0.00 | 0.10 | 0.10 | 99 | 1004.7 |
| 20260507081941 | 42 | 241 | 4.0 | 5.0 | 0.00 | 0.10 | 0.10 | 99 | 1004.7 |
| 20260507081437 | 42 | 253 | 1.0 | 2.0 | 0.00 | 0.10 | 0.10 | 99 | 1004.2 |
| 20260507080935 | 42 | 88 | 1.0 | 2.0 | 0.00 | 0.10 | 0.10 | 99 | 1004.7 |
| 20260507080430 | 42 | 180 | 2.0 | 2.0 | 0.00 | 0.10 | 0.10 | 99 | 1004.0 |
| 20260507075926 | 41 | 47 | 3.0 | 3.0 | 0.00 | 0.10 | 0.10 | 99 | 1003.8 |
| 20260507075422 | 41 | 169 | 0.0 | 1.0 | 0.00 | 0.10 | 0.10 | 99 | 1004.0 |
| 20260507074919 | 41 | 149 | 1.0 | 1.0 | 0.00 | 0.10 | 0.10 | 99 | 1004.4 |
| 20260507074416 | 41 | 162 | 1.0 | 1.0 | 0.00 | 0.10 | 0.10 | 99 | 1004.1 |
| 20260507073914 | 41 | 249 | 1.0 | 2.0 | 0.00 | 0.10 | 0.10 | 99 | 1004.4 |
| 20260507073410 | 41 | 57 | 2.0 | 2.0 | 0.00 | 0.10 | 0.10 | 99 | 1004.2 |
| 20260507072907 | 41 | 145 | 0.0 | 1.0 | 0.00 | 0.10 | 0.10 | 99 | 1004.1 |
| 20260507072404 | 41 | 352 | 1.0 | 2.0 | 0.00 | 0.10 | 0.10 | 99 | 1003.9 |
| 20260507071902 | 42 | 29 | 3.0 | 3.0 | 0.00 | 0.10 | 0.10 | 99 | 1003.7 |
| 20260507071359 | 42 | 37 | 1.0 | 2.0 | 0.00 | 0.10 | 0.10 | 99 | 1003.4 |
| 20260507070855 | 42 | 48 | 2.0 | 3.0 | 0.00 | 0.10 | 0.10 | 99 | 1003.5 |
| 20260507070353 | 42 | 217 | 5.0 | 8.0 | 0.00 | 0.10 | 0.10 | 99 | 1003.3 |
| 20260507065849 | 42 | 155 | 2.0 | 3.0 | 0.00 | 0.10 | 0.10 | 99 | 1003.5 |
| 20260507065346 | 42 | 309 | 3.0 | 5.0 | 0.00 | 0.10 | 0.10 | 99 | 1003.7 |
| 20260507064843 | 42 | 139 | 1.0 | 1.0 | 0.00 | 0.10 | 0.10 | 99 | 1003.5 |
| 20260507064341 | 42 | 35 | 4.0 | 7.0 | 0.00 | 0.10 | 0.10 | 99 | 1003.8 |
| 20260507063839 | 42 | 99 | 0.0 | 1.0 | 0.00 | 0.10 | 0.10 | 99 | 1003.8 |
| 20260507063335 | 42 | 28 | 1.0 | 2.0 | 0.00 | 0.10 | 0.10 | 99 | 1004.0 |
| 20260507062832 | 42 | 317 | 6.0 | 9.0 | 0.00 | 0.10 | 0.10 | 99 | 1003.5 |
| 20260507062329 | 42 | 337 | 4.0 | 5.0 | 0.00 | 0.10 | 0.10 | 99 | 1003.8 |
| 20260507061827 | 42 | 350 | 3.0 | 3.0 | 0.00 | 0.10 | 0.10 | 99 | 1003.5 |
| 20260507061325 | 43 | 43 | 3.0 | 5.0 | 0.00 | 0.10 | 0.10 | 99 | 1003.3 |
| 20260507060824 | 43 | 46 | 1.0 | 1.0 | 0.00 | 0.10 | 0.10 | 99 | 1003.6 |
| 20260507060320 | 43 | 192 | 2.0 | 3.0 | 0.00 | 0.10 | 0.10 | 99 | 1003.7 |
| 20260507055816 | 43 | 158 | 1.0 | 1.0 | 0.00 | 0.10 | 0.10 | 99 | 1003.8 |
| 20260507055311 | 43 | 183 | 0.0 | 1.0 | 0.00 | 0.10 | 0.10 | 99 | 1003.9 |
| 20260507054808 | 43 | 88 | 1.0 | 2.0 | 0.00 | 0.10 | 0.10 | 99 | 1003.7 |
| 20260507054304 | 43 | 82 | 2.0 | 2.0 | 0.00 | 0.10 | 0.10 | 99 | 1003.4 |
| 20260507053802 | 43 | 313 | 3.0 | 3.0 | 0.05 | 0.10 | 0.10 | 99 | 1003.0 |
| 20260507053259 | 43 | 51 | 2.0 | 2.0 | 0.05 | 0.10 | 0.10 | 99 | 1003.8 |
| 20260507052758 | 43 | 179 | 2.0 | 3.0 | 0.00 | 0.09 | 0.09 | 99 | 1003.7 |
| 20260507052254 | 43 | 306 | 2.0 | 2.0 | 0.00 | 0.09 | 0.09 | 99 | 1003.9 |
| 20260507051753 | 44 | 309 | 2.0 | 2.0 | 0.00 | 0.09 | 0.09 | 99 | 1003.9 |
| 20260507051249 | 44 | 190 | 1.0 | 1.0 | 0.00 | 0.09 | 0.09 | 99 | 1003.6 |
| 20260507050746 | 44 | 239 | 1.0 | 2.0 | 0.00 | 0.09 | 0.09 | 99 | 1003.6 |
| 20260507050243 | 44 | 47 | 5.0 | 7.0 | 0.00 | 0.09 | 0.09 | 99 | 1003.5 |
| 20260507045740 | 44 | 350 | 3.0 | 3.0 | 0.00 | 0.09 | 0.09 | 99 | 1003.5 |
| 20260507045235 | 44 | 358 | 5.0 | 6.0 | 0.07 | 0.09 | 0.09 | 99 | 1003.5 |
| 20260507044733 | 44 | 23 | 3.0 | 3.0 | 0.12 | 0.09 | 0.09 | 99 | 1003.3 |
| 20260507044229 | 44 | 36 | 4.0 | 7.0 | 0.12 | 0.08 | 0.08 | 99 | 1003.7 |
| 20260507043726 | 44 | 51 | 3.0 | 3.0 | 0.19 | 0.08 | 0.08 | 99 | 1003.8 |
| 20260507043223 | 44 | 36 | 2.0 | 3.0 | 0.19 | 0.06 | 0.06 | 99 | 1003.9 |
| 20260507042720 | 45 | 85 | 1.0 | 1.0 | 0.17 | 0.05 | 0.05 | 99 | 1003.9 |
| 20260507042220 | 45 | 55 | 2.0 | 3.0 | 0.12 | 0.04 | 0.04 | 99 | 1003.9 |
| 20260507041718 | 45 | 292 | 2.0 | 3.0 | 0.07 | 0.02 | 0.02 | 99 | 1003.9 |
| 20260507041214 | 45 | 19 | 2.0 | 2.0 | 0.12 | 0.02 | 0.02 | 99 | 1003.8 |
| 20260507040711 | 45 | 6 | 5.0 | 7.0 | 0.17 | 0.01 | 0.01 | 99 | 1003.8 |
| 20260507040207 | 45 | 31 | 4.0 | 7.0 | 0.12 | 0.00 | 0.00 | 99 | 1003.2 |
| 20260507035703 | 45 | 35 | 2.0 | 2.0 | 0.07 | 1.77 | 1.77 | 99 | 1003.6 |
| 20260507035159 | 45 | 332 | 4.0 | 6.0 | 0.07 | 1.77 | 1.77 | 99 | 1004.1 |
| 20260507034656 | 45 | 52 | 2.0 | 3.0 | 0.00 | 1.76 | 1.76 | 99 | 1003.7 |
| 20260507034154 | 45 | 45 | 3.0 | 5.0 | 0.00 | 1.76 | 1.76 | 99 | 1003.9 |
| 20260507033652 | 45 | 357 | 3.0 | 3.0 | 0.00 | 1.76 | 1.76 | 99 | 1003.4 |
| 20260507033149 | 45 | 23 | 5.0 | 7.0 | 0.05 | 1.76 | 1.76 | 99 | 1003.4 |
| 20260507032646 | 45 | 177 | 2.0 | 2.0 | 0.12 | 1.76 | 1.76 | 99 | 1003.3 |
| 20260507032142 | 45 | 28 | 6.0 | 7.0 | 0.14 | 1.75 | 1.75 | 99 | 1003.3 |
| 20260507031639 | 46 | 348 | 5.0 | 6.0 | 0.12 | 1.74 | 1.74 | 99 | 1003.2 |
| 20260507031135 | 46 | 10 | 4.0 | 5.0 | 0.17 | 1.73 | 1.73 | 99 | 1003.4 |
| 20260507030632 | 46 | 23 | 3.0 | 3.0 | 0.12 | 1.72 | 1.72 | 99 | 1003.5 |
| 20260507030130 | 46 | 15 | 3.0 | 3.0 | 0.12 | 1.70 | 1.70 | 99 | 1003.5 |
| 20260507025627 | 46 | 339 | 4.0 | 6.0 | 0.19 | 1.70 | 1.70 | 99 | 1003.5 |
| 20260507025124 | 47 | 340 | 3.0 | 5.0 | 0.12 | 1.68 | 1.68 | 99 | 1003.6 |
| 20260507024622 | 47 | 307 | 3.0 | 5.0 | 0.05 | 1.67 | 1.67 | 99 | 1003.4 |
| 20260507024119 | 47 | 57 | 3.0 | 3.0 | 0.00 | 1.66 | 1.66 | 99 | 1003.3 |
| 20260507023614 | 47 | 21 | 4.0 | 5.0 | 0.00 | 1.66 | 1.66 | 99 | 1003.1 |
| 20260507023112 | 47 | 353 | 1.0 | 3.0 | 0.00 | 1.66 | 1.66 | 99 | 1003.4 |
| 20260507022609 | 48 | 85 | 1.0 | 1.0 | 0.07 | 1.66 | 1.66 | 99 | 1003.3 |
| 20260507022059 | 48 | 157 | 1.0 | 1.0 | 0.07 | 1.66 | 1.66 | 99 | 1003.2 |
| 20260507021555 | 48 | 209 | 1.0 | 1.0 | 0.00 | 1.65 | 1.65 | 99 | 1003.3 |
| 20260507021051 | 49 | 11 | 3.0 | 3.0 | 0.00 | 1.65 | 1.65 | 99 | 1003.1 |
| 20260507020549 | 49 | 143 | 0.0 | 1.0 | 0.00 | 1.65 | 1.65 | 99 | 1003.3 |
| 20260507020045 | 49 | 23 | 0.0 | 1.0 | 0.00 | 1.65 | 1.65 | 99 | 1003.3 |
| 20260507015544 | 49 | 174 | 0.0 | 0.0 | 0.00 | 1.65 | 1.65 | 99 | 1003.2 |
| 20260507015041 | 50 | 165 | 0.0 | 1.0 | 0.05 | 1.65 | 1.65 | 99 | 1003.3 |
| 20260507014537 | 49 | 117 | 1.0 | 1.0 | 0.17 | 1.65 | 1.65 | 99 | 1003.4 |
| 20260507014033 | 49 | 62 | 1.0 | 2.0 | 0.31 | 1.64 | 1.64 | 99 | 1003.5 |
| 20260507013530 | 49 | 158 | 0.0 | 0.0 | 0.38 | 1.62 | 1.62 | 99 | 1003.6 |
| 20260507013027 | 49 | 175 | 1.0 | 1.0 | 0.31 | 1.59 | 1.59 | 99 | 1003.6 |
| 20260507012524 | 49 | 256 | 2.0 | 2.0 | 0.31 | 1.57 | 1.57 | 99 | 1004.1 |
| 20260507012020 | 50 | 35 | 3.0 | 3.0 | 0.47 | 1.54 | 1.54 | 99 | 1003.9 |
| 20260507011519 | 51 | 299 | 2.0 | 2.0 | 0.47 | 1.52 | 1.52 | 99 | 1004.1 |
| 20260507011014 | 53 | 241 | 4.0 | 5.0 | 0.35 | 1.47 | 1.47 | 99 | 1004.1 |
| 20260507010508 | 53 | 209 | 2.0 | 2.0 | 0.35 | 1.44 | 1.44 | 99 | 1004.4 |
| 20260507010005 | 53 | 259 | 5.0 | 6.0 | 0.24 | 1.41 | 1.41 | 99 | 1004.1 |
| 20260507005503 | 53 | 201 | 3.0 | 3.0 | 0.19 | 1.38 | 1.38 | 99 | 1004.0 |
| 20260507004959 | 53 | 241 | 4.0 | 6.0 | 0.19 | 1.37 | 1.37 | 99 | 1003.9 |
| 20260507004456 | 53 | 157 | 4.0 | 6.0 | 0.19 | 1.36 | 1.36 | 99 | 1003.8 |
| 20260507003954 | 53 | 189 | 1.0 | 2.0 | 0.17 | 1.34 | 1.34 | 99 | 1004.1 |
| 20260507003448 | 53 | 205 | 4.0 | 5.0 | 0.12 | 1.33 | 1.33 | 99 | 1003.8 |
| 20260507002943 | 53 | 166 | 5.0 | 7.0 | 0.12 | 1.32 | 1.32 | 99 | 1003.9 |
| 20260507002440 | 53 | 194 | 5.0 | 7.0 | 0.07 | 1.31 | 1.31 | 99 | 1003.8 |
| 20260507001937 | 53 | 142 | 2.0 | 2.0 | 0.00 | 1.30 | 1.30 | 99 | 1003.8 |
| 20260507001433 | 53 | 201 | 2.0 | 3.0 | 0.00 | 1.30 | 1.30 | 99 | 1004.2 |
| 20260507000931 | 53 | 186 | 4.0 | 5.0 | 0.00 | 1.30 | 1.30 | 99 | 1004.0 |
| 20260507000427 | 53 | 140 | 2.0 | 2.0 | 0.00 | 1.30 | 1.30 | 99 | 1003.8 |
| 20260506235922 | 53 | 147 | 7.0 | 8.0 | 0.05 | 1.30 | 1.30 | 99 | 1003.8 |
| 20260506235421 | 53 | 173 | 2.0 | 3.0 | 0.05 | 1.30 | 1.30 | 99 | 1004.0 |
| 20260506234915 | 53 | 193 | 3.0 | 3.0 | 0.00 | 1.29 | 1.29 | 99 | 1004.0 |
| 20260506234414 | 53 | 162 | 2.0 | 3.0 | 0.07 | 1.29 | 1.29 | 99 | 1004.2 |
| 20260506233911 | 53 | 212 | 2.0 | 2.0 | 0.07 | 1.29 | 1.29 | 99 | 1004.0 |
| 20260506233406 | 53 | 226 | 4.0 | 6.0 | 0.00 | 1.28 | 1.28 | 99 | 1004.1 |
| 20260506232904 | 53 | 197 | 3.0 | 3.0 | 0.00 | 1.28 | 1.28 | 99 | 1004.2 |
| 20260506232400 | 53 | 199 | 3.0 | 3.0 | 0.00 | 1.28 | 1.28 | 99 | 1004.2 |
| 20260506231856 | 53 | 191 | 3.0 | 3.0 | 0.00 | 1.28 | 1.28 | 99 | 1004.2 |
| 20260506231354 | 53 | 153 | 3.0 | 3.0 | 0.00 | 1.28 | 1.28 | 99 | 1004.0 |
| 20260506230851 | 54 | 147 | 6.0 | 7.0 | 0.05 | 1.28 | 1.28 | 99 | 1004.4 |
| 20260506230348 | 54 | 220 | 2.0 | 3.0 | 0.05 | 1.28 | 1.28 | 99 | 1004.2 |
| 20260506225843 | 54 | 173 | 2.0 | 2.0 | 0.00 | 1.27 | 1.27 | 99 | 1004.2 |
| 20260506225341 | 54 | 202 | 4.0 | 6.0 | 0.00 | 1.27 | 1.27 | 99 | 1004.1 |
| 20260506224838 | 54 | 173 | 3.0 | 3.0 | 0.00 | 1.27 | 1.27 | 99 | 1004.5 |
| 20260506224336 | 54 | 201 | 2.0 | 2.0 | 0.07 | 1.27 | 1.27 | 99 | 1004.8 |
| 20260506223832 | 54 | 217 | 3.0 | 3.0 | 0.12 | 1.27 | 1.27 | 99 | 1004.8 |
| 20260506223327 | 54 | 193 | 1.0 | 2.0 | 0.12 | 1.26 | 1.26 | 99 | 1004.5 |
| 20260506222824 | 54 | 205 | 4.0 | 5.0 | 0.14 | 1.25 | 1.25 | 99 | 1004.9 |
| 20260506222320 | 53 | 167 | 3.0 | 3.0 | 0.07 | 1.24 | 1.24 | 99 | 1004.8 |
| 20260506221818 | 54 | 204 | 5.0 | 6.0 | 0.00 | 1.23 | 1.23 | 99 | 1004.8 |
| 20260506221315 | 54 | 225 | 4.0 | 6.0 | 0.05 | 1.23 | 1.23 | 99 | 1004.9 |
| 20260506220814 | 54 | 251 | 7.0 | 9.0 | 0.12 | 1.23 | 1.23 | 99 | 1004.9 |
| 20260506220314 | 54 | 204 | 5.0 | 8.0 | 0.12 | 1.22 | 1.22 | 99 | 1004.8 |
| 20260506215810 | 54 | 267 | 4.0 | 5.0 | 0.28 | 1.21 | 1.21 | 99 | 1004.8 |
| 20260506215306 | 54 | 211 | 3.0 | 5.0 | 0.42 | 1.20 | 1.20 | 99 | 1004.8 |
| 20260506214802 | 54 | 242 | 5.0 | 7.0 | 0.24 | 1.16 | 1.16 | 99 | 1004.8 |
| 20260506214259 | 54 | 182 | 11.0 | 15.0 | 0.19 | 1.14 | 1.14 | 99 | 1004.4 |
| 20260506213758 | 54 | 166 | 3.0 | 3.0 | 0.14 | 1.12 | 1.12 | 99 | 1004.4 |
| 20260506213254 | 53 | 204 | 5.0 | 6.0 | 0.07 | 1.11 | 1.11 | 99 | 1004.2 |
| 20260506212752 | 53 | 183 | 2.0 | 2.0 | 0.00 | 1.10 | 1.10 | 99 | 1004.5 |
| 20260506212247 | 53 | 234 | 5.0 | 7.0 | 0.05 | 1.10 | 1.10 | 99 | 1004.6 |
| 20260506211743 | 53 | 165 | 3.0 | 6.0 | 0.05 | 1.10 | 1.10 | 99 | 1004.7 |
| 20260506211239 | 53 | 225 | 5.0 | 7.0 | 0.00 | 1.09 | 1.09 | 99 | 1004.8 |
| 20260506210736 | 53 | 217 | 3.0 | 3.0 | 0.00 | 1.09 | 1.09 | 99 | 1004.6 |
| 20260506210233 | 53 | 177 | 7.0 | 9.0 | 0.00 | 1.09 | 1.09 | 99 | 1004.7 |
| 20260506205730 | 53 | 188 | 8.0 | 9.0 | 0.07 | 1.09 | 1.09 | 99 | 1004.8 |
| 20260506205226 | 53 | 188 | 4.0 | 6.0 | 0.07 | 1.09 | 1.09 | 99 | 1005.2 |
| 20260506204723 | 53 | 158 | 3.0 | 6.0 | 0.05 | 1.08 | 1.08 | 99 | 1004.9 |
| 20260506204220 | 53 | 211 | 6.0 | 7.0 | 0.12 | 1.08 | 1.08 | 99 | 1005.1 |
| 20260506203718 | 53 | 250 | 8.0 | 9.0 | 0.12 | 1.07 | 1.07 | 99 | 1005.2 |
| 20260506203215 | 53 | 154 | 10.0 | 13.0 | 0.12 | 1.06 | 1.06 | 99 | 1005.5 |
| 20260506202713 | 54 | 189 | 7.0 | 10.0 | 0.12 | 1.05 | 1.05 | 99 | 1005.3 |
| 20260506202209 | 54 | 188 | 7.0 | 10.0 | 0.17 | 1.04 | 1.04 | 99 | 1005.3 |
| 20260506201706 | 54 | 168 | 11.0 | 16.0 | 0.31 | 1.03 | 1.03 | 99 | 1005.3 |
| 20260506201203 | 54 | 178 | 8.0 | 9.0 | 0.42 | 1.02 | 1.02 | 99 | 1005.2 |
| 20260506200659 | 54 | 242 | 10.0 | 11.0 | 0.97 | 0.98 | 0.98 | 99 | 1005.4 |
| 20260506200156 | 54 | 194 | 7.0 | 14.0 | 1.02 | 0.95 | 0.95 | 99 | 1005.3 |
| 20260506195653 | 55 | 209 | 6.0 | 7.0 | 0.52 | 0.84 | 0.84 | 99 | 1005.8 |
| 20260506195149 | 55 | 251 | 5.0 | 7.0 | 0.31 | 0.78 | 0.78 | 99 | 1005.7 |
| 20260506194647 | 55 | 233 | 8.0 | 9.0 | 0.42 | 0.75 | 0.75 | 99 | 1005.4 |
| 20260506194142 | 55 | 201 | 3.0 | 5.0 | 0.83 | 0.73 | 0.73 | 99 | 1005.4 |
| 20260506193641 | 55 | 219 | 12.0 | 16.0 | 1.02 | 0.68 | 0.68 | 99 | 1005.8 |
| 20260506193138 | 55 | 261 | 4.0 | 5.0 | 0.85 | 0.59 | 0.59 | 99 | 1005.8 |
| 20260506192634 | 55 | 232 | 2.0 | 2.0 | 0.66 | 0.51 | 0.51 | 99 | 1005.7 |
| 20260506192130 | 55 | 288 | 3.0 | 3.0 | 0.47 | 0.45 | 0.45 | 99 | 1005.8 |
| 20260506191627 | 55 | 209 | 3.0 | 3.0 | 0.47 | 0.41 | 0.41 | 99 | 1005.6 |
| 20260506191123 | 55 | 243 | 3.0 | 3.0 | 0.38 | 0.36 | 0.36 | 99 | 1005.8 |
| 20260506190621 | 55 | 229 | 5.0 | 6.0 | 0.28 | 0.32 | 0.32 | 99 | 1005.6 |
| 20260506190118 | 55 | 223 | 2.0 | 2.0 | 0.28 | 0.30 | 0.30 | 99 | 1005.5 |
| 20260506185615 | 55 | 193 | 2.0 | 3.0 | 0.26 | 0.27 | 0.27 | 99 | 1005.6 |
| 20260506185111 | 55 | 184 | 3.0 | 3.0 | 0.19 | 0.25 | 0.25 | 99 | 1005.5 |
| 20260506184609 | 55 | 256 | 5.0 | 6.0 | 0.19 | 0.24 | 0.24 | 99 | 1005.6 |
| 20260506184106 | 55 | 208 | 5.0 | 5.0 | 0.12 | 0.22 | 0.22 | 99 | 1005.8 |
| 20260506183602 | 55 | 193 | 4.0 | 5.0 | 0.17 | 0.21 | 0.21 | 99 | 1005.9 |
| 20260506183058 | 55 | 161 | 5.0 | 6.0 | 0.19 | 0.20 | 0.20 | 99 | 1005.8 |
| 20260506182556 | 55 | 161 | 1.0 | 1.0 | 0.12 | 0.18 | 0.18 | 99 | 1006.1 |
| 20260506182052 | 55 | 192 | 2.0 | 2.0 | 0.12 | 0.17 | 0.17 | 99 | 1006.2 |
| 20260506181551 | 55 | 201 | 2.0 | 2.0 | 0.12 | 0.16 | 0.16 | 99 | 1005.9 |
| 20260506181047 | 55 | 186 | 3.0 | 5.0 | 0.12 | 0.15 | 0.15 | 99 | 1006.2 |
| 20260506180544 | 55 | 173 | 5.0 | 7.0 | 0.12 | 0.14 | 0.14 | 99 | 1006.1 |
| 20260506180040 | 55 | 170 | 3.0 | 5.0 | 0.12 | 0.13 | 0.13 | 99 | 1006.7 |
| 20260506175537 | 54 | 217 | 6.0 | 8.0 | 0.07 | 0.12 | 0.12 | 99 | 1006.4 |
| 20260506175033 | 54 | 121 | 2.0 | 2.0 | 0.07 | 0.11 | 0.11 | 99 | 1006.4 |
| 20260506174532 | 54 | 181 | 2.0 | 2.0 | 0.07 | 0.11 | 0.11 | 99 | 1006.6 |
| 20260506174028 | 54 | 186 | 3.0 | 3.0 | 0.00 | 0.10 | 0.10 | 99 | 1006.6 |
| 20260506173526 | 54 | 171 | 1.0 | 2.0 | 0.05 | 0.10 | 0.10 | 99 | 1006.5 |
| 20260506173022 | 54 | 181 | 2.0 | 2.0 | 0.12 | 0.10 | 0.10 | 99 | 1006.5 |
| 20260506172520 | 54 | 203 | 3.0 | 5.0 | 0.07 | 0.09 | 0.09 | 99 | 1006.6 |
| 20260506172016 | 55 | 195 | 2.0 | 2.0 | 0.12 | 0.09 | 0.09 | 99 | 1006.5 |
| 20260506171513 | 54 | 165 | 1.0 | 1.0 | 0.05 | 0.08 | 0.08 | 99 | 1006.6 |
| 20260506171011 | 54 | 184 | 1.0 | 2.0 | 0.07 | 0.07 | 0.07 | 99 | 1006.8 |
| 20260506170508 | 54 | 170 | 1.0 | 1.0 | 0.12 | 0.07 | 0.07 | 99 | 1006.7 |
| 20260506170006 | 54 | 164 | 1.0 | 1.0 | 0.05 | 0.06 | 0.06 | 99 | 1007.2 |
| 20260506165504 | 54 | 151 | 2.0 | 2.0 | 0.07 | 0.05 | 0.05 | 99 | 1007.5 |
| 20260506165000 | 54 | 173 | 2.0 | 2.0 | 0.07 | 0.05 | 0.05 | 99 | 1007.6 |
| 20260506164456 | 54 | 185 | 1.0 | 2.0 | 0.00 | 0.04 | 0.04 | 99 | 1007.9 |
| 20260506163954 | 54 | 218 | 3.0 | 3.0 | 0.05 | 0.04 | 0.04 | 99 | 1008.1 |
| 20260506163449 | 54 | 117 | 2.0 | 2.0 | 0.05 | 0.04 | 0.04 | 99 | 1007.9 |
| 20260506162944 | 54 | 160 | 2.0 | 2.0 | 0.00 | 0.03 | 0.03 | 99 | 1008.2 |
| 20260506162442 | 54 | 184 | 1.0 | 2.0 | 0.12 | 0.03 | 0.03 | 99 | 1008.0 |
| 20260506161939 | 54 | 158 | 0.0 | 0.0 | 0.12 | 0.03 | 0.03 | 99 | 1008.1 |
| 20260506161438 | 54 | 152 | 1.0 | 1.0 | 0.12 | 0.02 | 0.02 | 99 | 1008.0 |
| 20260506160934 | 55 | 164 | 1.0 | 2.0 | 0.07 | 0.01 | 0.01 | 99 | 1008.3 |
| 20260506160432 | 55 | 193 | 1.0 | 1.0 | 0.00 | 0.00 | 0.00 | 99 | 1008.0 |
| 20260506155929 | 55 | 130 | 2.0 | 2.0 | 0.00 | 0.00 | 0.00 | 99 | 1008.0 |
| 20260506155427 | 55 | 103 | 1.0 | 1.0 | 0.00 | 0.00 | 0.00 | 99 | 1007.8 |
| 20260506153548 | 55 | 65 | 3.0 | 5.0 | 0.00 | 0.00 | 0.00 | 97 | 1007.9 |
| 20260506153045 | 55 | 65 | 3.0 | 5.0 | 0.00 | 0.00 | 0.00 | 97 | 1008.2 |
| 20260506152542 | 55 | 113 | 5.0 | 7.0 | 0.00 | 0.00 | 0.00 | 96 | 1008.1 |
| 20260506152040 | 55 | 113 | 5.0 | 7.0 | 0.00 | 0.00 | 0.00 | 96 | 1008.1 |
| 20260506151538 | 55 | 104 | 4.0 | 5.0 | 0.00 | 0.00 | 0.00 | 96 | 1008.0 |
| 20260506151035 | 55 | 104 | 4.0 | 5.0 | 0.00 | 0.00 | 0.00 | 96 | 1008.4 |
| 20260506150531 | 55 | 153 | 5.0 | 8.0 | 0.00 | 0.00 | 0.00 | 96 | 1008.2 |
| 20260506150028 | 55 | 94 | 3.0 | 3.0 | 0.00 | 0.00 | 0.00 | 96 | 1008.1 |
| 20260506145525 | 55 | 145 | 3.0 | 6.0 | 0.00 | 0.00 | 0.00 | 96 | 1008.1 |
| 20260506145023 | 55 | 149 | 5.0 | 7.0 | 0.00 | 0.00 | 0.00 | 95 | 1008.1 |
| 20260506144519 | 55 | 143 | 1.0 | 2.0 | 0.00 | 0.00 | 0.00 | 95 | 1008.1 |
| 20260506144017 | 55 | 140 | 2.0 | 2.0 | 0.00 | 0.00 | 0.00 | 96 | 1008.0 |
| 20260506143514 | 55 | 99 | 3.0 | 3.0 | 0.00 | 0.00 | 0.00 | 97 | 1007.7 |
| 20260506143013 | 55 | 39 | 3.0 | 3.0 | 0.00 | 0.00 | 0.00 | 97 | 1007.9 |
| 20260506142510 | 54 | 58 | 3.0 | 3.0 | 0.00 | 0.00 | 0.00 | 98 | 1008.2 |
| 20260506142008 | 54 | 129 | 3.0 | 5.0 | 0.00 | 0.00 | 0.00 | 98 | 1008.0 |
| 20260506141506 | 54 | 83 | 3.0 | 3.0 | 0.00 | 0.00 | 0.00 | 98 | 1008.1 |
| 20260506141004 | 54 | 156 | 0.0 | 0.0 | 0.00 | 0.00 | 0.00 | 99 | 1008.3 |
| 20260506140500 | 54 | 54 | 3.0 | 3.0 | 0.00 | 0.00 | 0.00 | 99 | 1008.4 |
| 20260506135957 | 54 | 52 | 2.0 | 2.0 | 0.00 | 0.00 | 0.00 | 99 | 1008.5 |
| 20260506135454 | 53 | 106 | 3.0 | 3.0 | 0.00 | 0.00 | 0.00 | 99 | 1008.3 |
| 20260506134950 | 53 | 98 | 3.0 | 3.0 | 0.00 | 0.00 | 0.00 | 99 | 1008.4 |
| 20260506134446 | 53 | 141 | 1.0 | 1.0 | 0.00 | 0.00 | 0.00 | 99 | 1008.5 |
| 20260506133943 | 53 | 141 | 1.0 | 1.0 | 0.00 | 0.00 | 0.00 | 99 | 1008.6 |
| 20260506133441 | 53 | 59 | 3.0 | 3.0 | 0.00 | 0.00 | 0.00 | 99 | 1008.8 |
| 20260506132937 | 53 | 111 | 0.0 | 0.0 | 0.00 | 0.00 | 0.00 | 99 | 1009.1 |
| 20260506132434 | 53 | 133 | 1.0 | 1.0 | 0.00 | 0.00 | 0.00 | 99 | 1009.0 |
| 20260506131932 | 53 | 104 | 0.0 | 1.0 | 0.00 | 0.00 | 0.00 | 99 | 1008.8 |
| 20260506131428 | 53 | 125 | 0.0 | 1.0 | 0.00 | 0.00 | 0.00 | 99 | 1009.3 |
| 20260506130925 | 53 | 139 | 0.0 | 0.0 | 0.00 | 0.00 | 0.00 | 99 | 1009.3 |
| 20260506130421 | 52 | 156 | 0.0 | 1.0 | 0.00 | 0.00 | 0.00 | 99 | 1009.3 |
| 20260506125920 | 52 | 105 | 2.0 | 2.0 | 0.00 | 0.00 | 0.00 | 99 | 1009.0 |
| 20260506125418 | 52 | 60 | 2.0 | 2.0 | 0.00 | 0.00 | 0.00 | 99 | 1009.1 |
| 20260506124916 | 52 | 117 | 2.0 | 2.0 | 0.00 | 0.00 | 0.00 | 99 | 1009.2 |
| 20260506124413 | 53 | 111 | 1.0 | 1.0 | 0.00 | 0.00 | 0.00 | 99 | 1009.0 |
| 20260506123911 | 52 | 149 | 3.0 | 3.0 | 0.00 | 0.00 | 0.00 | 99 | 1009.1 |
| 20260506123408 | 52 | 112 | 2.0 | 2.0 | 0.00 | 0.00 | 0.00 | 99 | 1009.1 |
| 20260506122906 | 52 | 115 | 1.0 | 2.0 | 0.00 | 0.00 | 0.00 | 99 | 1009.3 |
| 20260506122402 | 52 | 105 | 1.0 | 2.0 | 0.00 | 0.00 | 0.00 | 99 | 1009.2 |
| 20260506121901 | 52 | 94 | 2.0 | 2.0 | 0.00 | 0.00 | 0.00 | 99 | 1009.2 |
| 20260506121357 | 52 | 112 | 1.0 | 1.0 | 0.00 | 0.00 | 0.00 | 99 | 1009.1 |
| 20260506120854 | 52 | 73 | 2.0 | 2.0 | 0.00 | 0.00 | 0.00 | 99 | 1009.5 |
| 20260506120352 | 52 | 119 | 1.0 | 1.0 | 0.00 | 0.00 | 0.00 | 99 | 1009.4 |
| 20260506115849 | 52 | 172 | 1.0 | 1.0 | 0.00 | 0.00 | 0.00 | 99 | 1009.3 |
| 20260506115347 | 52 | 117 | 2.0 | 3.0 | 0.00 | 0.00 | 0.00 | 99 | 1009.0 |
| 20260506114845 | 52 | 114 | 1.0 | 1.0 | 0.00 | 0.00 | 0.00 | 99 | 1009.0 |
| 20260506114342 | 52 | 110 | 1.0 | 2.0 | 0.00 | 0.00 | 0.00 | 99 | 1009.1 |
| 20260506113841 | 52 | 133 | 1.0 | 2.0 | 0.00 | 0.00 | 0.00 | 99 | 1009.2 |
| 20260506113338 | 52 | 108 | 2.0 | 2.0 | 0.00 | 0.00 | 0.00 | 99 | 1009.6 |
| 20260506112834 | 51 | 84 | 0.0 | 1.0 | 0.00 | 0.00 | 0.00 | 99 | 1009.3 |
| 20260506112332 | 51 | 115 | 1.0 | 1.0 | 0.00 | 0.00 | 0.00 | 99 | 1009.4 |
| 20260506111829 | 51 | 113 | 2.0 | 2.0 | 0.00 | 0.00 | 0.00 | 99 | 1009.3 |
| 20260506111327 | 51 | 84 | 1.0 | 2.0 | 0.00 | 0.00 | 0.00 | 99 | 1009.3 |
| 20260506110824 | 51 | 119 | 1.0 | 2.0 | 0.00 | 0.00 | 0.00 | 99 | 1009.0 |
| 20260506110321 | 51 | 110 | 2.0 | 3.0 | 0.00 | 0.00 | 0.00 | 99 | 1009.4 |
| 20260506105818 | 51 | 76 | 3.0 | 3.0 | 0.00 | 0.00 | 0.00 | 99 | 1009.2 |
| 20260506105315 | 51 | 74 | 1.0 | 2.0 | 0.00 | 0.00 | 0.00 | 99 | 1009.5 |
| 20260506104812 | 51 | 92 | 1.0 | 1.0 | 0.00 | 0.00 | 0.00 | 99 | 1009.6 |
| 20260506104310 | 52 | 144 | 0.0 | 0.0 | 0.00 | 0.00 | 0.00 | 99 | 1009.3 |
| 20260506103808 | 52 | 102 | 1.0 | 1.0 | 0.00 | 0.00 | 0.00 | 99 | 1009.4 |
| 20260506103305 | 52 | 115 | 1.0 | 1.0 | 0.00 | 0.00 | 0.00 | 99 | 1009.3 |
| 20260506102802 | 52 | 70 | 1.0 | 2.0 | 0.00 | 0.00 | 0.00 | 98 | 1009.2 |
| 20260506102300 | 52 | 97 | 2.0 | 2.0 | 0.00 | 0.00 | 0.00 | 97 | 1009.0 |
| 20260506101757 | 52 | 92 | 1.0 | 2.0 | 0.00 | 0.00 | 0.00 | 97 | 1008.8 |
| 20260506101253 | 51 | 105 | 1.0 | 1.0 | 0.00 | 0.00 | 0.00 | 98 | 1009.0 |
| 20260506100751 | 51 | 111 | 0.0 | 0.0 | 0.00 | 0.00 | 0.00 | 99 | 1009.2 |
| 20260506100249 | 51 | 138 | 0.0 | 0.0 | 0.00 | 0.00 | 0.00 | 99 | 1009.1 |
| 20260506095747 | 51 | 138 | 0.0 | 0.0 | 0.00 | 0.00 | 0.00 | 99 | 1009.3 |
| 20260506095244 | 51 | 137 | 0.0 | 0.0 | 0.00 | 0.00 | 0.00 | 99 | 1009.1 |
| 20260506094740 | 0 | 0.0 | 0.0 | 0.00 | 0.00 | 0.00 | 1008.6 | ||
| 20260506094239 | 52 | 144 | 0.0 | 0.0 | 0.00 | 0.00 | 0.00 | 98 | 1008.6 |
| 20260506093737 | 52 | 144 | 0.0 | 0.0 | 0.00 | 0.00 | 0.00 | 98 | 1008.6 |
| 20260506093234 | 52 | 103 | 1.0 | 1.0 | 0.00 | 0.00 | 0.00 | 98 | 1009.1 |
| 20260506092732 | 52 | 92 | 1.0 | 1.0 | 0.00 | 0.00 | 0.00 | 97 | 1008.7 |
| 20260506092229 | 52 | 35 | 3.0 | 3.0 | 0.00 | 0.00 | 0.00 | 97 | 1008.6 |
| 20260506091726 | 52 | 65 | 2.0 | 2.0 | 0.00 | 0.00 | 0.00 | 98 | 1008.8 |
| 20260506091224 | 52 | 21 | 2.0 | 2.0 | 0.00 | 0.00 | 0.00 | 98 | 1008.4 |
| 20260506090721 | 52 | 29 | 3.0 | 3.0 | 0.00 | 0.00 | 0.00 | 98 | 1008.4 |
| 20260506090218 | 52 | 36 | 1.0 | 2.0 | 0.00 | 0.00 | 0.00 | 98 | 1008.4 |
| 20260506085715 | 53 | 85 | 1.0 | 1.0 | 0.00 | 0.00 | 0.00 | 98 | 1008.3 |